When you browse on this site, cookies collect data to enhance your experience and personalize the content and advertising you see.
Visit our Privacy Policy to learn more. By continuing to use the site, you agree to this use of cookies and data.
EN

Hourly Weather Aberlour

Today, 2 July, Thursday

Time Temperature Precipitation Wind Pressure Humidity
00:00 +7°C° 0 mm 1 mps 740 mmHg 89%
01:00 +7°C° 0 mm 1 mps 740 mmHg 90%
02:00 +7°C° 0 mm 1 mps 740 mmHg 90%
03:00 +7°C° 0 mm 1 mps 740 mmHg 90%
04:00 +8°C° 0 mm 1 mps 740 mmHg 88%
05:00 +9°C° 0 mm 1 mps 740 mmHg 86%
06:00 +10°C° 0 mm 1 mps 741 mmHg 84%
07:00 +10°C° 0 mm 1 mps 741 mmHg 79%
08:00 +11°C° 0 mm 1 mps 741 mmHg 75%
09:00 +12°C° 0 mm 1 mps 741 mmHg 70%
10:00 +13°C° 0 mm 1 mps 741 mmHg 69%
11:00 +13°C° 0 mm 1 mps 741 mmHg 68%
12:00 +13°C° 0 mm 1 mps 741 mmHg 67%
13:00 +13°C° 0.1 mm 2 mps 741 mmHg 68%
14:00 +13°C° 0.1 mm 2 mps 741 mmHg 69%
15:00 +14°C° 0.1 mm 2 mps 741 mmHg 70%
16:00 +13°C° 0.1 mm 2 mps 741 mmHg 73%
17:00 +12°C° 0.1 mm 3 mps 741 mmHg 76%
18:00 +12°C° 0.1 mm 3 mps 741 mmHg 79%
19:00 +12°C° 0.1 mm 2 mps 741 mmHg 83%
20:00 +12°C° 0.1 mm 2 mps 741 mmHg 87%
21:00 +10°C° 0.1 mm 2 mps 741 mmHg 91%
22:00 +11°C° 0.1 mm 1 mps 740 mmHg 92%
23:00 +10°C° 0.1 mm 1 mps 740 mmHg 93%

Tomorrow, 3 July, Friday

Time Temperature Precipitation Wind Pressure Humidity
00:00 +10°C° 0.1 mm 1 mps 740 mmHg 94%
01:00 +10°C° 0.2 mm 1 mps 739 mmHg 95%
02:00 +10°C° 0.2 mm 1 mps 739 mmHg 95%
03:00 +9°C° 0.2 mm 2 mps 738 mmHg 96%
04:00 +10°C° 0.1 mm 1 mps 738 mmHg 94%
05:00 +10°C° 0.1 mm 1 mps 738 mmHg 93%
06:00 +10°C° 0.1 mm 1 mps 737 mmHg 92%
07:00 +10°C° 0.5 mm 1 mps 737 mmHg 93%
08:00 +9°C° 0.5 mm 2 mps 736 mmHg 94%
09:00 +9°C° 0.5 mm 2 mps 736 mmHg 95%
10:00 +9°C° 1 mm 2 mps 736 mmHg 95%
11:00 +9°C° 1 mm 2 mps 735 mmHg 95%
12:00 +9°C° 1 mm 2 mps 735 mmHg 96%
13:00 +10°C° 0.4 mm 2 mps 735 mmHg 94%
14:00 +10°C° 0.4 mm 2 mps 735 mmHg 92%
15:00 +12°C° 0.4 mm 2 mps 735 mmHg 91%
16:00 +11°C° 0.1 mm 3 mps 735 mmHg 87%
17:00 +12°C° 0.1 mm 4 mps 736 mmHg 84%
18:00 +12°C° 0.1 mm 5 mps 736 mmHg 80%
19:00 +11°C° 0 mm 4 mps 736 mmHg 83%
20:00 +10°C° 0 mm 4 mps 737 mmHg 86%
21:00 +9°C° 0 mm 3 mps 737 mmHg 88%
22:00 +8°C° 0 mm 3 mps 737 mmHg 90%
23:00 +8°C° 0 mm 2 mps 737 mmHg 91%

Day after tomorrow, 4 July, Saturday

Time Temperature Precipitation Wind Pressure Humidity
00:00 +7°C° 0 mm 2 mps 737 mmHg 93%
01:00 +7°C° 0 mm 2 mps 737 mmHg 93%
02:00 +7°C° 0 mm 2 mps 737 mmHg 92%
03:00 +7°C° 0 mm 2 mps 737 mmHg 92%
04:00 +9°C° 0.2 mm 1 mps 736 mmHg 92%
05:00 +9°C° 0.2 mm 1 mps 736 mmHg 92%
06:00 +10°C° 0.2 mm 1 mps 736 mmHg 92%
07:00 +10°C° 1 mm 1 mps 735 mmHg 94%
08:00 +9°C° 1 mm 2 mps 735 mmHg 96%
09:00 +9°C° 1 mm 2 mps 735 mmHg 97%
10:00 +11°C° 0.7 mm 1 mps 734 mmHg 95%
11:00 +12°C° 0.7 mm 1 mps 734 mmHg 93%
12:00 +13°C° 0.7 mm 1 mps 734 mmHg 91%
13:00 +14°C° 0.2 mm 2 mps 734 mmHg 90%
14:00 +13°C° 0.2 mm 3 mps 734 mmHg 88%
15:00 +14°C° 0.2 mm 4 mps 734 mmHg 87%
16:00 +14°C° 0.1 mm 3 mps 734 mmHg 85%
17:00 +14°C° 0.1 mm 3 mps 734 mmHg 83%
18:00 +15°C° 0.1 mm 2 mps 734 mmHg 80%
19:00 +14°C° 0.2 mm 2 mps 734 mmHg 85%
20:00 +13°C° 0.2 mm 1 mps 734 mmHg 89%
21:00 +11°C° 0.2 mm 1 mps 735 mmHg 93%
22:00 +11°C° 0.6 mm 1 mps 734 mmHg 94%
23:00 +11°C° 0.6 mm 1 mps 734 mmHg 94%

5 July, Sunday

Time Temperature Precipitation Wind Pressure Humidity
00:00 +11°C° 0.6 mm 1 mps 733 mmHg 94%
01:00 +10°C° 0.7 mm 1 mps 733 mmHg 95%
02:00 +10°C° 0.7 mm 1 mps 732 mmHg 95%
03:00 +10°C° 0.7 mm 1 mps 732 mmHg 96%
04:00 +10°C° 0.4 mm 1 mps 731 mmHg 96%
05:00 +10°C° 0.4 mm 1 mps 731 mmHg 96%
06:00 +10°C° 0.4 mm 1 mps 731 mmHg 96%
07:00 +10°C° 0.3 mm 2 mps 731 mmHg 91%
08:00 +10°C° 0.3 mm 4 mps 732 mmHg 87%
09:00 +10°C° 0.3 mm 5 mps 732 mmHg 82%
10:00 +12°C° 0.1 mm 5 mps 733 mmHg 75%
11:00 +13°C° 0.1 mm 6 mps 733 mmHg 68%
12:00 +14°C° 0.1 mm 6 mps 733 mmHg 61%
13:00 +14°C° 0.3 mm 6 mps 733 mmHg 66%
14:00 +14°C° 0.3 mm 6 mps 733 mmHg 71%
15:00 +14°C° 0.3 mm 5 mps 734 mmHg 75%
16:00 +13°C° 0.3 mm 5 mps 734 mmHg 75%
17:00 +13°C° 0.3 mm 5 mps 734 mmHg 74%
18:00 +13°C° 0.3 mm 4 mps 733 mmHg 74%
19:00 +12°C° 0.3 mm 4 mps 734 mmHg 79%
20:00 +11°C° 0.4 mm 4 mps 734 mmHg 83%
21:00 +10°C° 0.4 mm 4 mps 734 mmHg 88%
22:00 +9°C° 0.2 mm 3 mps 734 mmHg 89%
23:00 +9°C° 0.2 mm 3 mps 734 mmHg 90%

6 July, Monday

Time Temperature Precipitation Wind Pressure Humidity
00:00 +8°C° 0.2 mm 3 mps 734 mmHg 91%
01:00 +8°C° 0.1 mm 3 mps 734 mmHg 92%
02:00 +7°C° 0.1 mm 4 mps 734 mmHg 93%
03:00 +6°C° 0.1 mm 4 mps 735 mmHg 93%
04:00 +7°C° 0 mm 5 mps 735 mmHg 92%
05:00 +8°C° 0 mm 5 mps 736 mmHg 90%
06:00 +8°C° 0 mm 5 mps 737 mmHg 88%
07:00 +9°C° 0.2 mm 6 mps 738 mmHg 87%
08:00 +9°C° 0.2 mm 7 mps 739 mmHg 86%
09:00 +10°C° 0.2 mm 8 mps 740 mmHg 85%
10:00 +10°C° 0.2 mm 8 mps 740 mmHg 84%
11:00 +10°C° 0.2 mm 7 mps 741 mmHg 83%
12:00 +9°C° 0.2 mm 7 mps 742 mmHg 82%
13:00 +9°C° 0.1 mm 7 mps 743 mmHg 77%
14:00 +9°C° 0.1 mm 7 mps 744 mmHg 73%
15:00 +9°C° 0.1 mm 7 mps 745 mmHg 69%
16:00 +9°C° 0.1 mm 7 mps 745 mmHg 68%
17:00 +9°C° 0.1 mm 7 mps 746 mmHg 66%
18:00 +9°C° 0.1 mm 7 mps 746 mmHg 65%
19:00 +8°C° 0.1 mm 6 mps 747 mmHg 70%
20:00 +7°C° 0.1 mm 6 mps 747 mmHg 75%
21:00 +6°C° 0.1 mm 5 mps 748 mmHg 80%
22:00 +6°C° 0 mm 5 mps 748 mmHg 83%
23:00 +5°C° 0 mm 4 mps 748 mmHg 86%

7 July, Tuesday

Time Temperature Precipitation Wind Pressure Humidity
00:00 +5°C° 0 mm 4 mps 749 mmHg 89%
01:00 +4°C° 0 mm 4 mps 749 mmHg 89%
02:00 +4°C° 0 mm 4 mps 749 mmHg 89%
03:00 +4°C° 0 mm 4 mps 749 mmHg 89%
04:00 +5°C° 0 mm 4 mps 749 mmHg 84%
05:00 +7°C° 0 mm 4 mps 749 mmHg 79%
06:00 +8°C° 0 mm 5 mps 749 mmHg 75%
07:00 +9°C° 0 mm 5 mps 749 mmHg 72%
08:00 +10°C° 0 mm 5 mps 749 mmHg 69%
09:00 +12°C° 0 mm 5 mps 749 mmHg 66%
10:00 +13°C° 0.1 mm 5 mps 749 mmHg 67%
11:00 +13°C° 0.1 mm 4 mps 749 mmHg 67%
12:00 +13°C° 0.1 mm 4 mps 749 mmHg 67%
13:00 +13°C° 0.1 mm 4 mps 749 mmHg 68%
14:00 +13°C° 0.1 mm 4 mps 749 mmHg 69%
15:00 +13°C° 0.1 mm 3 mps 749 mmHg 70%
16:00 +13°C° 0.1 mm 3 mps 749 mmHg 72%
17:00 +13°C° 0.1 mm 3 mps 749 mmHg 73%
18:00 +14°C° 0.1 mm 2 mps 749 mmHg 75%
19:00 +13°C° 0.1 mm 2 mps 749 mmHg 79%
20:00 +12°C° 0.1 mm 1 mps 749 mmHg 82%
21:00 +11°C° 0.1 mm 1 mps 749 mmHg 86%
22:00 +10°C° 0.1 mm 1 mps 749 mmHg 87%
23:00 +10°C° 0.1 mm 1 mps 748 mmHg 88%
Show more